Location: Rowland
(34.5359°N, 79.2929°W)
Time: 15:27:55
(UTC+00:00)

Transit 4A - Pass Details

Date: 04 October 2022
Orbit: 871 x 972 km, 66.8° (Epoch: 29 November)

Event Time Altitude Azimuth Distance (km) Brightness Sun altitude
Rises 10:53:24 0° 347° (NNW) 3,484 10.7 -5.1°
Reaches altitude 10° 10:56:36 10° 4° (N) 2,532 10.2 -4.4°
Maximum altitude 11:00:50 20° 51° (NE) 1,891 10.3 -3.6°
Drops below altitude 10° 11:05:03 10° 98° (E) 2,515 12.3 -2.7°
Sets 11:08:12 0° 114° (ESE) 3,453 12.5 -2.0°
